Year,Month,Day,Hour,Minute,Value (Times are PST for temperature in C)
2011,01,16,00,00,4.10
2011,01,16,00,01,4.20
2011,01,16,00,02,4.20
2011,01,16,00,03,4.20
2011,01,16,00,04,4.20
2011,01,16,00,05,4.30
2011,01,16,00,06,4.30
2011,01,16,00,07,4.30
2011,01,16,00,08,4.30
2011,01,16,00,09,4.30
2011,01,16,00,10,4.30
2011,01,16,00,11,4.40
2011,01,16,00,12,4.40
2011,01,16,00,13,4.40
2011,01,16,00,14,4.40
2011,01,16,00,15,4.40
2011,01,16,00,16,4.40
2011,01,16,00,17,4.40
2011,01,16,00,18,4.40
2011,01,16,00,19,4.40
2011,01,16,00,20,4.40
2011,01,16,00,21,4.50
2011,01,16,00,22,4.50
2011,01,16,00,23,4.50
2011,01,16,00,24,4.50
2011,01,16,00,25,4.50
2011,01,16,00,26,4.50
2011,01,16,00,27,4.50
2011,01,16,00,28,4.50
2011,01,16,00,29,4.50
2011,01,16,00,30,4.60
2011,01,16,00,31,4.60
2011,01,16,00,32,4.60
2011,01,16,00,33,4.50
2011,01,16,00,34,4.50
2011,01,16,00,35,4.50
2011,01,16,00,36,4.50
2011,01,16,00,37,4.50
2011,01,16,00,38,4.50
2011,01,16,00,39,4.50
2011,01,16,00,40,4.50
2011,01,16,00,41,4.50
2011,01,16,00,42,4.50
2011,01,16,00,43,4.40
2011,01,16,00,44,4.40
2011,01,16,00,45,4.30
2011,01,16,00,46,4.30
2011,01,16,00,47,4.20
2011,01,16,00,48,4.10
2011,01,16,00,49,4.10
2011,01,16,00,50,4.10
2011,01,16,00,51,4.10
2011,01,16,00,52,4.20
2011,01,16,00,53,4.20
2011,01,16,00,54,4.20
2011,01,16,00,55,4.20
2011,01,16,00,56,4.30
2011,01,16,00,57,4.30
2011,01,16,00,58,4.30
2011,01,16,00,59,4.30
2011,01,16,01,00,4.30
2011,01,16,01,01,4.30
2011,01,16,01,02,4.30
2011,01,16,01,03,4.30
2011,01,16,01,04,4.30
2011,01,16,01,05,4.30
2011,01,16,01,06,4.30
2011,01,16,01,07,4.30
2011,01,16,01,08,4.30
2011,01,16,01,09,4.30
2011,01,16,01,10,4.30
2011,01,16,01,11,4.30
2011,01,16,01,12,4.30
2011,01,16,01,13,4.30
2011,01,16,01,14,4.30
2011,01,16,01,15,4.30
2011,01,16,01,16,4.30
2011,01,16,01,17,4.30
2011,01,16,01,18,4.30
2011,01,16,01,19,4.30
2011,01,16,01,20,4.30
2011,01,16,01,21,4.30
2011,01,16,01,22,4.30
2011,01,16,01,23,4.30
2011,01,16,01,24,4.30
2011,01,16,01,25,4.30
2011,01,16,01,26,4.30
2011,01,16,01,27,4.30
2011,01,16,01,28,4.30
2011,01,16,01,29,4.30
2011,01,16,01,30,4.30
2011,01,16,01,31,4.20
2011,01,16,01,32,4.20
2011,01,16,01,33,4.20
2011,01,16,01,34,4.20
2011,01,16,01,35,4.20
2011,01,16,01,36,4.20
2011,01,16,01,37,4.20
2011,01,16,01,38,4.20
2011,01,16,01,39,4.20
2011,01,16,01,40,4.20
2011,01,16,01,41,4.20
2011,01,16,01,42,4.10
2011,01,16,01,43,4.10
2011,01,16,01,44,4.20
2011,01,16,01,45,4.20
2011,01,16,01,46,4.20
2011,01,16,01,47,4.20
2011,01,16,01,48,4.20
2011,01,16,01,49,4.20
2011,01,16,01,50,4.20
2011,01,16,01,51,4.20
2011,01,16,01,52,4.20
2011,01,16,01,53,4.20
2011,01,16,01,54,4.20
2011,01,16,01,55,4.20
2011,01,16,01,56,4.20
2011,01,16,01,57,4.20
2011,01,16,01,58,4.20
2011,01,16,01,59,4.30
2011,01,16,02,00,4.30
2011,01,16,02,01,4.30
2011,01,16,02,02,4.30
2011,01,16,02,03,4.30
2011,01,16,02,04,4.30
2011,01,16,02,05,4.30
2011,01,16,02,06,4.30
2011,01,16,02,07,4.30
2011,01,16,02,08,4.30
2011,01,16,02,09,4.30
2011,01,16,02,10,4.30
2011,01,16,02,11,4.30
2011,01,16,02,12,4.30
2011,01,16,02,13,4.30
2011,01,16,02,14,4.30
2011,01,16,02,15,4.20
2011,01,16,02,16,4.20
2011,01,16,02,17,4.20
2011,01,16,02,18,4.10
2011,01,16,02,19,4.10
2011,01,16,02,20,4.10
2011,01,16,02,21,4.10
2011,01,16,02,22,4.10
2011,01,16,02,23,4.10
2011,01,16,02,24,4.10
2011,01,16,02,25,4.10
2011,01,16,02,26,4.10
2011,01,16,02,27,4.10
2011,01,16,02,28,4.10
2011,01,16,02,29,4.10
2011,01,16,02,30,4.10
2011,01,16,02,31,4.10
2011,01,16,02,32,4.10
2011,01,16,02,33,4.10
2011,01,16,02,34,4.10
2011,01,16,02,35,4.00
2011,01,16,02,36,4.00
2011,01,16,02,37,4.00
2011,01,16,02,38,4.00
2011,01,16,02,39,3.90
2011,01,16,02,40,3.90
2011,01,16,02,41,3.90
2011,01,16,02,42,3.90
2011,01,16,02,43,3.90
2011,01,16,02,44,3.90
2011,01,16,02,45,3.90
2011,01,16,02,46,3.90
2011,01,16,02,47,3.90
2011,01,16,02,48,3.90
2011,01,16,02,49,3.90
2011,01,16,02,50,3.90
2011,01,16,02,51,3.90
2011,01,16,02,52,3.90
2011,01,16,02,53,3.90
2011,01,16,02,54,3.90
2011,01,16,02,55,3.90
2011,01,16,02,56,3.90
2011,01,16,02,57,3.90
2011,01,16,02,58,3.90
2011,01,16,02,59,3.90
2011,01,16,03,00,3.90
2011,01,16,03,01,3.90
2011,01,16,03,02,3.80
2011,01,16,03,06,3.80
2011,01,16,03,07,3.80
2011,01,16,03,08,3.80
2011,01,16,03,09,3.80
2011,01,16,03,10,3.80
2011,01,16,03,11,3.80
2011,01,16,03,12,3.80
2011,01,16,03,13,3.80
2011,01,16,03,14,3.80
2011,01,16,03,15,3.80
2011,01,16,03,16,3.80
2011,01,16,03,17,3.80
2011,01,16,03,18,3.80
2011,01,16,03,19,3.90
2011,01,16,03,20,3.90
2011,01,16,03,21,3.90
2011,01,16,03,22,3.90
2011,01,16,03,23,3.90
2011,01,16,03,24,3.90
2011,01,16,03,25,3.90
2011,01,16,03,26,3.90
2011,01,16,03,27,3.90
2011,01,16,03,28,3.90
2011,01,16,03,29,3.90
2011,01,16,03,30,3.90
2011,01,16,03,31,3.90
2011,01,16,03,32,3.90
2011,01,16,03,33,3.90
2011,01,16,03,34,3.90
2011,01,16,03,35,3.90
2011,01,16,03,36,3.80
2011,01,16,03,37,3.90
2011,01,16,03,38,3.90
2011,01,16,03,39,3.90
2011,01,16,03,40,3.90
2011,01,16,03,41,3.90
2011,01,16,03,42,3.90
2011,01,16,03,43,3.90
2011,01,16,03,44,3.90
2011,01,16,03,45,3.90
2011,01,16,03,46,3.90
2011,01,16,03,47,3.90
2011,01,16,03,48,3.90
2011,01,16,03,49,3.90
2011,01,16,03,50,3.80
2011,01,16,03,51,3.80
2011,01,16,03,52,3.80
2011,01,16,03,53,3.80
2011,01,16,03,54,3.80
2011,01,16,03,55,3.90
2011,01,16,03,56,3.90
2011,01,16,03,57,3.80
2011,01,16,03,58,3.80
2011,01,16,03,59,3.80
2011,01,16,04,00,3.80
2011,01,16,04,01,3.80
2011,01,16,04,02,3.80
2011,01,16,04,03,3.80
2011,01,16,04,04,3.80
2011,01,16,04,05,3.80
2011,01,16,04,06,3.90
2011,01,16,04,07,3.90
2011,01,16,04,08,3.90
2011,01,16,04,09,3.90
2011,01,16,04,10,3.90
2011,01,16,04,11,3.90
2011,01,16,04,12,3.90
2011,01,16,04,13,3.90
2011,01,16,04,14,3.90
2011,01,16,04,15,3.90
2011,01,16,04,16,3.90
2011,01,16,04,17,3.90
2011,01,16,04,18,3.90
2011,01,16,04,19,3.90
2011,01,16,04,20,3.90
2011,01,16,04,21,3.90
2011,01,16,04,22,3.90
2011,01,16,04,23,3.90
2011,01,16,04,24,3.90
2011,01,16,04,25,3.90
2011,01,16,04,26,3.90
2011,01,16,04,27,3.90
2011,01,16,04,28,3.80
2011,01,16,04,29,3.90
2011,01,16,04,30,3.90
2011,01,16,04,31,3.90
2011,01,16,04,32,3.90
2011,01,16,04,33,4.00
2011,01,16,04,34,4.00
2011,01,16,04,35,4.00
2011,01,16,04,36,4.00
2011,01,16,04,37,4.00
2011,01,16,04,38,4.00
2011,01,16,04,39,4.00
2011,01,16,04,40,4.00
2011,01,16,04,41,4.00
2011,01,16,04,42,3.90
2011,01,16,04,43,3.90
2011,01,16,04,44,3.90
2011,01,16,04,45,3.90
2011,01,16,04,46,3.90
2011,01,16,04,47,3.90
2011,01,16,04,48,3.90
2011,01,16,04,49,3.90
2011,01,16,04,50,3.90
2011,01,16,04,51,3.90
2011,01,16,04,52,3.90
2011,01,16,04,53,3.90
2011,01,16,04,54,3.90
2011,01,16,04,55,3.90
2011,01,16,04,56,3.90
2011,01,16,04,57,3.90
2011,01,16,04,58,3.90
2011,01,16,04,59,4.00
2011,01,16,05,00,4.00
2011,01,16,05,01,4.00
2011,01,16,05,02,4.00
2011,01,16,05,03,4.00
2011,01,16,05,04,4.00
2011,01,16,05,05,4.00
2011,01,16,05,06,4.00
2011,01,16,05,07,3.90
2011,01,16,05,08,3.90
2011,01,16,05,09,3.90
2011,01,16,05,10,3.90
2011,01,16,05,11,3.90
2011,01,16,05,12,3.90
2011,01,16,05,13,3.90
2011,01,16,05,14,3.90
2011,01,16,05,15,3.90
2011,01,16,05,16,3.90
2011,01,16,05,17,3.90
2011,01,16,05,18,3.90
2011,01,16,05,19,3.90
2011,01,16,05,20,3.90
2011,01,16,05,21,3.90
2011,01,16,05,22,3.90
2011,01,16,05,23,3.90
2011,01,16,05,24,3.90
2011,01,16,05,25,3.90
2011,01,16,05,26,3.90
2011,01,16,05,27,3.90
2011,01,16,05,28,3.90
2011,01,16,05,29,3.90
2011,01,16,05,30,3.90
2011,01,16,05,31,3.90
2011,01,16,05,32,3.90
2011,01,16,05,33,3.90
2011,01,16,05,34,3.90
2011,01,16,05,35,3.90
2011,01,16,05,36,3.90
2011,01,16,05,37,3.90
2011,01,16,05,38,3.90
2011,01,16,05,39,3.90
2011,01,16,05,40,3.90
2011,01,16,05,41,3.90
2011,01,16,05,42,3.80
2011,01,16,05,43,3.80
2011,01,16,05,44,3.80
2011,01,16,05,45,3.80
2011,01,16,05,46,3.80
2011,01,16,05,47,3.80
2011,01,16,05,48,3.80
2011,01,16,05,49,3.80
2011,01,16,05,50,3.80
2011,01,16,05,51,3.80
2011,01,16,05,52,3.90
2011,01,16,05,53,3.90
2011,01,16,05,54,3.90
2011,01,16,05,55,3.90
2011,01,16,05,56,3.90
2011,01,16,05,57,3.90
2011,01,16,05,58,3.90
2011,01,16,05,59,3.90
2011,01,16,06,00,4.00
2011,01,16,06,01,3.90
2011,01,16,06,02,3.90
2011,01,16,06,03,3.90
2011,01,16,06,04,3.90
2011,01,16,06,05,3.90
2011,01,16,06,06,3.90
2011,01,16,06,07,3.80
2011,01,16,06,08,3.90
2011,01,16,06,09,3.90
2011,01,16,06,10,3.90
2011,01,16,06,11,3.90
2011,01,16,06,12,3.90
2011,01,16,06,13,3.80
2011,01,16,06,14,3.80
2011,01,16,06,15,3.80
2011,01,16,06,16,3.80
2011,01,16,06,17,3.80
2011,01,16,06,18,3.80
2011,01,16,06,19,3.80
2011,01,16,06,20,3.80
2011,01,16,06,21,3.80
2011,01,16,06,22,3.90
2011,01,16,06,23,3.90
2011,01,16,06,24,3.90
2011,01,16,06,25,3.90
2011,01,16,06,26,3.80
2011,01,16,06,27,3.80
2011,01,16,06,28,3.80
2011,01,16,06,29,3.80
2011,01,16,06,30,3.80
2011,01,16,06,31,3.80
2011,01,16,06,32,3.80
2011,01,16,06,33,3.80
2011,01,16,06,34,3.80
2011,01,16,06,35,3.80
2011,01,16,06,36,3.80
2011,01,16,06,37,3.80
2011,01,16,06,38,3.80
2011,01,16,06,39,3.80
2011,01,16,06,40,3.80
2011,01,16,06,41,3.80
2011,01,16,06,42,3.90
2011,01,16,06,43,3.90
2011,01,16,06,44,3.90
2011,01,16,06,45,3.90
2011,01,16,06,46,3.90
2011,01,16,06,47,3.90
2011,01,16,06,48,3.80
2011,01,16,06,49,3.80
2011,01,16,06,50,3.80
2011,01,16,06,51,3.80
2011,01,16,06,52,3.70
2011,01,16,06,53,3.80
2011,01,16,06,54,3.80
2011,01,16,06,55,3.80
2011,01,16,06,56,3.80
2011,01,16,06,57,3.80
2011,01,16,06,58,3.80
2011,01,16,06,59,3.80
2011,01,16,07,00,3.80
2011,01,16,07,01,3.80
2011,01,16,07,02,3.80
2011,01,16,07,03,3.90
2011,01,16,07,04,3.90
2011,01,16,07,05,4.00
2011,01,16,07,06,4.10
2011,01,16,07,07,4.10
2011,01,16,07,08,4.10
2011,01,16,07,09,4.10
2011,01,16,07,10,4.10
2011,01,16,07,11,4.10
2011,01,16,07,12,4.20
2011,01,16,07,13,4.20
2011,01,16,07,14,4.20
2011,01,16,07,15,4.20
2011,01,16,07,16,4.20
2011,01,16,07,17,4.20
2011,01,16,07,18,4.20
2011,01,16,07,19,4.20
2011,01,16,07,20,4.20
2011,01,16,07,21,4.20
2011,01,16,07,22,4.20
2011,01,16,07,23,4.20
2011,01,16,07,24,4.20
2011,01,16,07,25,4.20
2011,01,16,07,26,4.20
2011,01,16,07,27,4.20
2011,01,16,07,28,4.20
2011,01,16,07,29,4.20
2011,01,16,07,30,4.20
2011,01,16,07,31,4.20
2011,01,16,07,32,4.20
2011,01,16,07,33,4.20
2011,01,16,07,34,4.20
2011,01,16,07,35,4.20
2011,01,16,07,36,4.20
2011,01,16,07,37,4.20
2011,01,16,07,38,4.10
2011,01,16,07,39,4.10
2011,01,16,07,40,4.10
2011,01,16,07,41,4.10
2011,01,16,07,42,4.10
2011,01,16,07,43,4.10
2011,01,16,07,44,4.10
2011,01,16,07,45,4.00
2011,01,16,07,46,4.00
2011,01,16,07,47,4.00
2011,01,16,07,48,4.00
2011,01,16,07,49,4.10
2011,01,16,07,50,4.10
2011,01,16,07,51,4.10
2011,01,16,07,52,4.10
2011,01,16,07,53,4.10
2011,01,16,07,54,4.10
2011,01,16,07,55,4.10
2011,01,16,07,56,4.00
2011,01,16,07,57,4.00
2011,01,16,07,58,4.00
2011,01,16,07,59,4.00
2011,01,16,08,00,3.90
2011,01,16,08,01,3.90
2011,01,16,08,02,3.90
2011,01,16,08,03,3.90
2011,01,16,08,04,3.90
2011,01,16,08,05,3.90
2011,01,16,08,06,3.90
2011,01,16,08,07,3.90
2011,01,16,08,08,3.90
2011,01,16,08,09,3.90
2011,01,16,08,10,3.90
2011,01,16,08,11,3.90
2011,01,16,08,12,3.90
2011,01,16,08,13,3.90
2011,01,16,08,14,3.90
2011,01,16,08,15,4.00
2011,01,16,08,16,4.00
2011,01,16,08,17,4.00
2011,01,16,08,18,4.00
2011,01,16,08,19,4.00
2011,01,16,08,20,4.00
2011,01,16,08,21,4.00
2011,01,16,08,22,4.00
2011,01,16,08,23,4.00
2011,01,16,08,24,4.00
2011,01,16,08,25,4.10
2011,01,16,08,26,4.10
2011,01,16,08,27,4.10
2011,01,16,08,28,4.10
2011,01,16,08,29,4.10
2011,01,16,08,30,4.10
2011,01,16,08,31,4.10
2011,01,16,08,32,4.10
2011,01,16,08,33,4.10
2011,01,16,08,34,4.10
2011,01,16,08,35,4.10
2011,01,16,08,36,4.10
2011,01,16,08,37,4.10
2011,01,16,08,38,4.10
2011,01,16,08,39,4.10
2011,01,16,08,40,4.10
2011,01,16,08,41,4.00
2011,01,16,08,42,4.00
2011,01,16,08,43,4.00
2011,01,16,08,44,4.10
2011,01,16,08,45,4.10
2011,01,16,08,46,4.10
2011,01,16,08,47,4.10
2011,01,16,08,48,4.10
2011,01,16,08,49,4.10
2011,01,16,08,50,4.10
2011,01,16,08,51,4.00
2011,01,16,08,52,4.00
2011,01,16,08,53,4.00
2011,01,16,08,54,4.10
2011,01,16,08,55,4.10
2011,01,16,08,56,4.10
2011,01,16,08,57,4.10
2011,01,16,08,58,4.10
2011,01,16,08,59,4.10
2011,01,16,09,00,4.20
2011,01,16,09,01,4.20
2011,01,16,09,02,4.20
2011,01,16,09,03,4.20
2011,01,16,09,04,4.20
2011,01,16,09,05,4.20
2011,01,16,09,06,4.30
2011,01,16,09,07,4.30
2011,01,16,09,08,4.30
2011,01,16,09,09,4.30
2011,01,16,09,10,4.30
2011,01,16,09,11,4.30
2011,01,16,09,12,4.40
2011,01,16,09,13,4.40
2011,01,16,09,14,4.40
2011,01,16,09,15,4.40
2011,01,16,09,16,4.40
2011,01,16,09,17,4.40
2011,01,16,09,18,4.50
2011,01,16,09,19,4.50
2011,01,16,09,20,4.50
2011,01,16,09,21,4.50
2011,01,16,09,22,4.50
2011,01,16,09,23,4.50
2011,01,16,09,24,4.50
2011,01,16,09,25,4.50
2011,01,16,09,26,4.50
2011,01,16,09,27,4.50
2011,01,16,09,28,4.50
2011,01,16,09,29,4.50
2011,01,16,09,30,4.50
2011,01,16,09,31,4.60
2011,01,16,09,32,4.50
2011,01,16,09,33,4.50
2011,01,16,09,34,4.50
2011,01,16,09,35,4.50
2011,01,16,09,36,4.50
2011,01,16,09,37,4.50
2011,01,16,09,38,4.50
2011,01,16,09,39,4.40
2011,01,16,09,40,4.40
2011,01,16,09,41,4.40
2011,01,16,09,42,4.40
2011,01,16,09,43,4.40
2011,01,16,09,44,4.40
2011,01,16,09,45,4.40
2011,01,16,09,46,4.40
2011,01,16,09,47,4.40
2011,01,16,09,48,4.40
2011,01,16,09,49,4.40
2011,01,16,09,50,4.40
2011,01,16,09,51,4.40
2011,01,16,09,52,4.30
2011,01,16,09,53,4.30
2011,01,16,09,54,4.30
2011,01,16,09,55,4.30
2011,01,16,09,56,4.30
2011,01,16,09,57,4.30
2011,01,16,09,58,4.30
2011,01,16,09,59,4.40
2011,01,16,10,00,4.40
2011,01,16,10,01,4.40
2011,01,16,10,02,4.40
2011,01,16,10,03,4.50
2011,01,16,10,04,4.50
2011,01,16,10,05,4.60
2011,01,16,10,06,4.60
2011,01,16,10,07,4.60
2011,01,16,10,08,4.60
2011,01,16,10,09,4.60
2011,01,16,10,10,4.60
2011,01,16,10,11,4.60
2011,01,16,10,12,4.70
2011,01,16,10,13,4.60
2011,01,16,10,14,4.60
2011,01,16,10,15,4.60
2011,01,16,10,16,4.60
2011,01,16,10,17,4.70
2011,01,16,10,18,4.70
2011,01,16,10,19,4.70
2011,01,16,10,20,4.70
2011,01,16,10,21,4.70
2011,01,16,10,22,4.70
2011,01,16,10,23,4.70
2011,01,16,10,24,4.70
2011,01,16,10,25,4.70
2011,01,16,10,26,4.70
2011,01,16,10,27,4.70
2011,01,16,10,28,4.70
2011,01,16,10,29,4.70
2011,01,16,10,30,4.70
2011,01,16,10,31,4.70
2011,01,16,10,32,4.70
2011,01,16,10,33,4.70
2011,01,16,10,34,4.70
2011,01,16,10,35,4.70
2011,01,16,10,36,4.70
2011,01,16,10,37,4.70
2011,01,16,10,38,4.70
2011,01,16,10,39,4.70
2011,01,16,10,40,4.70
2011,01,16,10,41,4.80
2011,01,16,10,42,4.80
2011,01,16,10,43,4.80
2011,01,16,10,44,4.80
2011,01,16,10,45,4.80
2011,01,16,10,46,4.90
2011,01,16,10,47,4.90
2011,01,16,10,48,4.90
2011,01,16,10,49,5.00
2011,01,16,10,50,5.00
2011,01,16,10,51,5.10
2011,01,16,10,52,5.10
2011,01,16,10,53,5.20
2011,01,16,10,54,5.20
2011,01,16,10,55,5.30
2011,01,16,10,56,5.30
2011,01,16,10,57,5.30
2011,01,16,10,58,5.30
2011,01,16,10,59,5.30
2011,01,16,11,00,5.40
2011,01,16,11,01,5.40
2011,01,16,11,02,5.40
2011,01,16,11,03,5.40
2011,01,16,11,04,5.40
2011,01,16,11,05,5.50
2011,01,16,11,06,5.50
2011,01,16,11,07,5.60
2011,01,16,11,08,5.60
2011,01,16,11,09,5.70
2011,01,16,11,10,5.70
2011,01,16,11,11,5.80
2011,01,16,11,12,5.80
2011,01,16,11,13,5.80
2011,01,16,11,14,5.80
2011,01,16,11,15,5.80
2011,01,16,11,16,5.80
2011,01,16,11,17,5.80
2011,01,16,11,18,5.80
2011,01,16,11,19,5.90
2011,01,16,11,20,5.90
2011,01,16,11,21,5.90
2011,01,16,11,22,5.90
2011,01,16,11,23,5.90
2011,01,16,11,24,5.90
2011,01,16,11,25,5.90
2011,01,16,11,26,6.00
2011,01,16,11,27,6.00
2011,01,16,11,28,6.10
2011,01,16,11,29,6.10
2011,01,16,11,30,6.20
2011,01,16,11,31,6.30
2011,01,16,11,32,6.30
2011,01,16,11,33,6.40
2011,01,16,11,34,6.40
2011,01,16,11,35,6.50
2011,01,16,11,36,6.60
2011,01,16,11,37,6.60
2011,01,16,11,38,6.60
2011,01,16,11,39,6.60
2011,01,16,11,40,6.50
2011,01,16,11,41,6.40
2011,01,16,11,42,6.40
2011,01,16,11,43,6.50
2011,01,16,11,44,6.50
2011,01,16,11,45,6.60
2011,01,16,11,46,6.70
2011,01,16,11,47,6.80
2011,01,16,11,48,7.00
2011,01,16,11,49,7.10
2011,01,16,11,50,7.20
2011,01,16,11,51,7.50
2011,01,16,11,52,7.90
2011,01,16,11,53,8.20
2011,01,16,11,54,8.60
2011,01,16,11,55,8.90
2011,01,16,11,56,9.10
2011,01,16,11,57,9.30
2011,01,16,11,58,9.40
2011,01,16,11,59,9.50
2011,01,16,12,00,9.60
2011,01,16,12,01,9.70
2011,01,16,12,02,9.80
2011,01,16,12,03,9.80
2011,01,16,12,04,9.80
2011,01,16,12,05,9.60
2011,01,16,12,06,9.50
2011,01,16,12,07,9.40
2011,01,16,12,08,9.40
2011,01,16,12,09,9.50
2011,01,16,12,10,9.70
2011,01,16,12,11,9.80
2011,01,16,12,12,10.00
2011,01,16,12,13,10.10
2011,01,16,12,14,10.20
2011,01,16,12,15,10.30
2011,01,16,12,16,10.30
2011,01,16,12,17,10.40
2011,01,16,12,18,10.40
2011,01,16,12,19,10.50
2011,01,16,12,20,10.50
2011,01,16,12,21,10.50
2011,01,16,12,22,10.60
2011,01,16,12,23,10.60
2011,01,16,12,24,10.70
2011,01,16,12,25,10.70
2011,01,16,12,26,10.70
2011,01,16,12,27,10.80
2011,01,16,12,28,10.80
2011,01,16,12,29,10.80
2011,01,16,12,30,10.70
2011,01,16,12,31,10.70
2011,01,16,12,32,10.70
2011,01,16,12,33,10.70
2011,01,16,12,34,10.70
2011,01,16,12,35,10.70
2011,01,16,12,36,10.70
2011,01,16,12,37,10.70
2011,01,16,12,38,10.70
2011,01,16,12,39,10.70
2011,01,16,12,40,10.70
2011,01,16,12,41,10.70
2011,01,16,12,42,10.70
2011,01,16,12,43,10.70
2011,01,16,12,44,10.70
2011,01,16,12,45,10.70
2011,01,16,12,46,10.70
2011,01,16,12,47,10.70
2011,01,16,12,48,10.70
2011,01,16,12,49,10.70
2011,01,16,12,50,10.80
2011,01,16,12,51,10.80
2011,01,16,12,52,10.90
2011,01,16,12,53,10.90
2011,01,16,12,54,10.90
2011,01,16,12,55,10.90
2011,01,16,12,56,10.80
2011,01,16,12,57,10.80
2011,01,16,12,58,10.80
2011,01,16,12,59,10.80
2011,01,16,13,00,10.80
2011,01,16,13,01,10.80
2011,01,16,13,02,10.80
2011,01,16,13,03,10.80
2011,01,16,13,04,10.80
2011,01,16,13,05,10.80
2011,01,16,13,06,10.80
2011,01,16,13,07,10.80
2011,01,16,13,08,10.80
2011,01,16,13,09,10.90
2011,01,16,13,10,10.80
2011,01,16,13,11,10.80
2011,01,16,13,12,10.90
2011,01,16,13,13,10.90
2011,01,16,13,14,10.90
2011,01,16,13,15,11.00
2011,01,16,13,16,11.00
2011,01,16,13,17,11.00
2011,01,16,13,18,11.10
2011,01,16,13,19,11.10
2011,01,16,13,20,11.10
2011,01,16,13,21,11.10
2011,01,16,13,22,11.20
2011,01,16,13,23,11.20
2011,01,16,13,24,11.20
2011,01,16,13,25,11.20
2011,01,16,13,26,11.20
2011,01,16,13,27,11.20
2011,01,16,13,28,11.20
2011,01,16,13,29,11.20
2011,01,16,13,30,11.10
2011,01,16,13,31,11.10
2011,01,16,13,32,11.10
2011,01,16,13,33,11.10
2011,01,16,13,34,11.10
2011,01,16,13,35,11.10
2011,01,16,13,36,11.10
2011,01,16,13,37,11.10
2011,01,16,13,38,11.10
2011,01,16,13,39,11.10
2011,01,16,13,40,11.10
2011,01,16,13,41,11.10
2011,01,16,13,42,11.00
2011,01,16,13,43,11.00
2011,01,16,13,44,11.10
2011,01,16,13,45,11.10
2011,01,16,13,46,11.10
2011,01,16,13,47,11.10
2011,01,16,13,48,11.10
2011,01,16,13,49,11.20
2011,01,16,13,50,11.20
2011,01,16,13,51,11.20
2011,01,16,13,52,11.10
2011,01,16,13,53,11.10
2011,01,16,13,54,11.10
2011,01,16,13,55,11.10
2011,01,16,13,56,11.10
2011,01,16,13,57,11.10
2011,01,16,13,58,11.10
2011,01,16,13,59,11.10
2011,01,16,14,00,11.10
2011,01,16,14,01,11.10
2011,01,16,14,02,11.20
2011,01,16,14,03,11.20
2011,01,16,14,04,11.20
2011,01,16,14,05,11.20
2011,01,16,14,06,11.20
2011,01,16,14,07,11.20
2011,01,16,14,08,11.30
2011,01,16,14,09,11.30
2011,01,16,14,10,11.30
2011,01,16,14,11,11.40
2011,01,16,14,12,11.40
2011,01,16,14,13,11.40
2011,01,16,14,14,11.40
2011,01,16,14,15,11.40
2011,01,16,14,16,11.40
2011,01,16,14,17,11.40
2011,01,16,14,18,11.40
2011,01,16,14,19,11.40
2011,01,16,14,20,11.40
2011,01,16,14,21,11.40
2011,01,16,14,22,11.40
2011,01,16,14,23,11.40
2011,01,16,14,24,11.40
2011,01,16,14,25,11.40
2011,01,16,14,26,11.40
2011,01,16,14,27,11.40
2011,01,16,14,28,11.40
2011,01,16,14,29,11.40
2011,01,16,14,30,11.40
2011,01,16,14,31,11.40
2011,01,16,14,32,11.40
2011,01,16,14,33,11.30
2011,01,16,14,34,11.30
2011,01,16,14,35,11.30
2011,01,16,14,36,11.30
2011,01,16,14,37,11.30
2011,01,16,14,38,11.20
2011,01,16,14,39,11.20
2011,01,16,14,40,11.20
2011,01,16,14,41,11.20
2011,01,16,14,42,11.10
2011,01,16,14,43,11.10
2011,01,16,14,44,11.10
2011,01,16,14,45,11.10
2011,01,16,14,46,11.10
2011,01,16,14,47,11.10
2011,01,16,14,48,11.00
2011,01,16,14,49,11.00
2011,01,16,14,50,11.00
2011,01,16,14,51,11.00
2011,01,16,14,52,11.00
2011,01,16,14,53,10.90
2011,01,16,14,54,10.90
2011,01,16,14,55,10.90
2011,01,16,14,56,10.90
2011,01,16,14,57,10.90
2011,01,16,14,58,10.90
2011,01,16,14,59,10.80
2011,01,16,15,00,10.80
2011,01,16,15,01,10.80
2011,01,16,15,02,10.80
2011,01,16,15,03,10.80
2011,01,16,15,04,10.80
2011,01,16,15,05,10.80
2011,01,16,15,06,10.80
2011,01,16,15,07,10.80
2011,01,16,15,08,10.80
2011,01,16,15,09,10.80
2011,01,16,15,10,10.80
2011,01,16,15,11,10.70
2011,01,16,15,12,10.70
2011,01,16,15,13,10.70
2011,01,16,15,14,10.70
2011,01,16,15,15,10.70
2011,01,16,15,16,10.70
2011,01,16,15,17,10.60
2011,01,16,15,18,10.60
2011,01,16,15,19,10.60
2011,01,16,15,20,10.60
2011,01,16,15,21,10.60
2011,01,16,15,22,10.60
2011,01,16,15,23,10.60
2011,01,16,15,24,10.60
2011,01,16,15,25,10.60
2011,01,16,15,26,10.50
2011,01,16,15,27,10.60
2011,01,16,15,28,10.60
2011,01,16,15,29,10.60
2011,01,16,15,30,10.60
2011,01,16,15,31,10.60
2011,01,16,15,32,10.60
2011,01,16,15,33,10.60
2011,01,16,15,34,10.60
2011,01,16,15,35,10.50
2011,01,16,15,36,10.50
2011,01,16,15,37,10.40
2011,01,16,15,38,10.40
2011,01,16,15,39,10.40
2011,01,16,15,40,10.40
2011,01,16,15,41,10.40
2011,01,16,15,42,10.40
2011,01,16,15,43,10.40
2011,01,16,15,44,10.40
2011,01,16,15,45,10.40
2011,01,16,15,46,10.40
2011,01,16,15,47,10.40
2011,01,16,15,48,10.40
2011,01,16,15,49,10.40
2011,01,16,15,50,10.40
2011,01,16,15,51,10.40
2011,01,16,15,52,10.40
2011,01,16,15,53,10.40
2011,01,16,15,54,10.40
2011,01,16,15,55,10.40
2011,01,16,15,56,10.40
2011,01,16,15,57,10.40
2011,01,16,15,58,10.40
2011,01,16,15,59,10.40
2011,01,16,16,00,10.40
2011,01,16,16,01,10.40
2011,01,16,16,02,10.40
2011,01,16,16,03,10.40
2011,01,16,16,04,10.40
2011,01,16,16,05,10.50
2011,01,16,16,06,10.50
2011,01,16,16,07,10.50
2011,01,16,16,08,10.50
2011,01,16,16,09,10.50
2011,01,16,16,10,10.50
2011,01,16,16,11,10.50
2011,01,16,16,12,10.50
2011,01,16,16,13,10.50
2011,01,16,16,14,10.50
2011,01,16,16,15,10.60
2011,01,16,16,16,10.60
2011,01,16,16,17,10.50
2011,01,16,16,18,10.60
2011,01,16,16,19,10.60
2011,01,16,16,20,10.50
2011,01,16,16,21,10.50
2011,01,16,16,22,10.50
2011,01,16,16,23,10.50
2011,01,16,16,24,10.50
2011,01,16,16,25,10.50
2011,01,16,16,26,10.50
2011,01,16,16,27,10.50
2011,01,16,16,28,10.50
2011,01,16,16,29,10.50
2011,01,16,16,30,10.50
2011,01,16,16,31,10.60
2011,01,16,16,32,10.60
2011,01,16,16,33,10.50
2011,01,16,16,34,10.50
2011,01,16,16,35,10.50
2011,01,16,16,36,10.40
2011,01,16,16,37,10.40
2011,01,16,16,38,10.40
2011,01,16,16,39,10.40
2011,01,16,16,40,10.40
2011,01,16,16,41,10.40
2011,01,16,16,42,10.40
2011,01,16,16,43,10.40
2011,01,16,16,44,10.40
2011,01,16,16,45,10.30
2011,01,16,16,46,10.30
2011,01,16,16,47,10.30
2011,01,16,16,48,10.30
2011,01,16,16,49,10.30
2011,01,16,16,50,10.30
2011,01,16,16,51,10.30
2011,01,16,16,52,10.30
2011,01,16,16,53,10.30
2011,01,16,16,54,10.30
2011,01,16,16,55,10.20
2011,01,16,16,56,10.20
2011,01,16,16,57,10.20
2011,01,16,16,58,10.20
2011,01,16,16,59,10.20
2011,01,16,17,00,10.10
2011,01,16,17,01,10.10
2011,01,16,17,02,10.10
2011,01,16,17,03,10.10
2011,01,16,17,04,10.10
2011,01,16,17,05,10.10
2011,01,16,17,06,10.10
2011,01,16,17,07,10.00
2011,01,16,17,08,10.00
2011,01,16,17,09,10.00
2011,01,16,17,10,10.00
2011,01,16,17,11,10.00
2011,01,16,17,12,10.00
2011,01,16,17,13,10.00
2011,01,16,17,14,9.90
2011,01,16,17,15,10.00
2011,01,16,17,16,9.90
2011,01,16,17,17,9.90
2011,01,16,17,18,9.90
2011,01,16,17,19,9.90
2011,01,16,17,20,9.90
2011,01,16,17,21,9.90
2011,01,16,17,22,9.90
2011,01,16,17,23,9.90
2011,01,16,17,24,9.90
2011,01,16,17,25,9.80
2011,01,16,17,26,9.80
2011,01,16,17,27,9.80
2011,01,16,17,28,9.80
2011,01,16,17,29,9.80
2011,01,16,17,30,9.80
2011,01,16,17,31,9.80
2011,01,16,17,32,9.70
2011,01,16,17,33,9.70
2011,01,16,17,34,9.70
2011,01,16,17,35,9.70
2011,01,16,17,36,9.70
2011,01,16,17,37,9.70
2011,01,16,17,38,9.60
2011,01,16,17,39,9.60
2011,01,16,17,40,9.60
2011,01,16,17,41,9.50
2011,01,16,17,42,9.50
2011,01,16,17,43,9.50
2011,01,16,17,44,9.50
2011,01,16,17,45,9.40
2011,01,16,17,46,9.40
2011,01,16,17,47,9.40
2011,01,16,17,48,9.40
2011,01,16,17,49,9.30
2011,01,16,17,50,9.30
2011,01,16,17,51,9.30
2011,01,16,17,52,9.30
2011,01,16,17,53,9.30
2011,01,16,17,54,9.20
2011,01,16,17,55,9.20